GEC8222 EDDF-MMMY

Flight info

Callsign GEC8222
Flight time N/A
Altitude 34000
Route OBOKA5G/25C OBOKA Z29 TORNU DCT BATAK DCT GALSO Q63 ERING L179 UGBET Q60 OKSAW DCT BIBPE DCT FELCA DCT FADZU DCT OFSOX DCT SLANY DCT TOBOR/M083F360 DCT 53N020W 53N030W 5230N04000W 50N050W DCT ELSIR/N0466F360 N398B TUSKY/N0470F380 Q475 COPLY Q75 NELIE DCT TRIBS Q448 PTW J48 CSN DCT FANPO Q40 ALEAN/N0474F400 Q40 AEX DCT DAS DCT PSX DCT REX UJ13 ITPIS ITPIS1A
Aircraft B77L/H-SDE2E3FGHIJ1J3J4J5M1P2RWXYZ/LB1D1

Departure

Time 2026-05-06 17:44
Airport Frankfurt Main Airport (EDDF)

Arrival

Time N/A
Airport Monterrey International Airport (MMMY)
Time Latitude Longitude Altitude Speed Heading
2026-05-06 16:51 50.04123 8.54744 363 ft 0 kts 70°
2026-05-06 17:26 50.04111 8.54698 359 ft 6 kts 65°
2026-05-06 17:26 50.04094 8.54649 362 ft 2 kts 75°
2026-05-06 17:26 50.04095 8.54632 362 ft 2 kts 131°
2026-05-06 17:26 50.04101 8.54622 362 ft 0 kts 141°
2026-05-06 17:31 50.04100 8.54623 362 ft 1 kts 142°
2026-05-06 17:31 50.04091 8.54628 362 ft 2 kts 159°
2026-05-06 17:32 50.04058 8.54647 355 ft 8 kts 161°
2026-05-06 17:32 50.03986 8.54690 359 ft 13 kts 153°
2026-05-06 17:32 50.03970 8.54814 361 ft 13 kts 71°
2026-05-06 17:32 50.03981 8.54952 361 ft 12 kts 118°
2026-05-06 17:33 50.03910 8.55006 361 ft 15 kts 159°
2026-05-06 17:33 50.03844 8.55092 361 ft 9 kts 92°
2026-05-06 17:33 50.03869 8.55198 363 ft 13 kts 70°
2026-05-06 17:33 50.03906 8.55349 361 ft 17 kts 68°
2026-05-06 17:34 50.03951 8.55539 362 ft 21 kts 69°
2026-05-06 17:34 50.04006 8.55773 361 ft 22 kts 70°
2026-05-06 17:34 50.04026 8.55857 366 ft 0 kts 70°
2026-05-06 17:35 50.04030 8.55872 364 ft 5 kts 70°
2026-05-06 17:36 50.04102 8.56171 365 ft 18 kts 69°
2026-05-06 17:36 50.04142 8.56337 365 ft 17 kts 70°
2026-05-06 17:36 50.04180 8.56498 368 ft 14 kts 70°
2026-05-06 17:36 50.04210 8.56624 368 ft 12 kts 70°
2026-05-06 17:37 50.04238 8.56749 367 ft 12 kts 70°
2026-05-06 17:37 50.04269 8.56873 372 ft 13 kts 69°
2026-05-06 17:37 50.04307 8.57030 371 ft 19 kts 69°
2026-05-06 17:37 50.04358 8.57241 373 ft 22 kts 69°
2026-05-06 17:38 50.04411 8.57466 372 ft 22 kts 69°
2026-05-06 17:38 50.04466 8.57692 374 ft 22 kts 70°
2026-05-06 17:38 50.04517 8.57906 376 ft 21 kts 69°
2026-05-06 17:38 50.04559 8.58079 380 ft 16 kts 70°
2026-05-06 17:39 50.04595 8.58240 379 ft 16 kts 70°
2026-05-06 17:39 50.04635 8.58403 377 ft 16 kts 69°
2026-05-06 17:39 50.04656 8.58490 378 ft 0 kts 69°
2026-05-06 17:41 50.04657 8.58493 378 ft 2 kts 71°
2026-05-06 17:41 50.04640 8.58555 377 ft 10 kts 131°
2026-05-06 17:41 50.04564 8.58618 375 ft 13 kts 158°
2026-05-06 17:41 50.04486 8.58577 377 ft 11 kts 237°
2026-05-06 17:42 50.04479 8.58552 378 ft 0 kts 248°
2026-05-06 17:42 50.04479 8.58550 378 ft 0 kts 248°
2026-05-06 17:42 50.04479 8.58549 378 ft 0 kts 248°
2026-05-06 17:42 50.04478 8.58548 378 ft 1 kts 248°
2026-05-06 17:43 50.04438 8.58391 377 ft 43 kts 250°
2026-05-06 17:43 50.04258 8.57630 371 ft 105 kts 250°
2026-05-06 17:43 50.03944 8.56297 365 ft 156 kts 253°
2026-05-06 17:43 50.03540 8.54676 661 ft 161 kts 250°
2026-05-06 17:44 50.03104 8.53033 1038 ft 167 kts 252°
2026-05-06 17:44 50.02747 8.51275 1470 ft 175 kts 263°
2026-05-06 17:44 50.02791 8.49411 1962 ft 173 kts 278°
2026-05-06 17:44 50.02922 8.47452 2271 ft 193 kts 276°
2026-05-06 17:45 50.03050 8.45253 2505 ft 216 kts 274°
2026-05-06 17:45 50.02929 8.42804 2754 ft 239 kts 261°
2026-05-06 17:45 50.02592 8.40218 3359 ft 248 kts 259°
2026-05-06 17:45 50.02250 8.37602 4093 ft 252 kts 258°
2026-05-06 17:46 50.01907 8.34876 4788 ft 256 kts 258°
2026-05-06 17:46 50.01573 8.32153 5029 ft 258 kts 258°
2026-05-06 17:46 50.01269 8.29392 5145 ft 258 kts 267°
2026-05-06 17:46 50.01574 8.26671 5792 ft 263 kts 291°
2026-05-06 17:47 50.02348 8.24076 6457 ft 267 kts 292°
2026-05-06 17:47 50.03127 8.21432 7167 ft 269 kts 292°
2026-05-06 17:47 50.03904 8.18773 7918 ft 271 kts 292°
2026-05-06 17:47 50.04689 8.16079 8631 ft 275 kts 292°
2026-05-06 17:48 50.05482 8.13354 9340 ft 278 kts 292°
2026-05-06 17:48 50.06415 8.10707 9960 ft 284 kts 303°
2026-05-06 17:48 50.07656 8.08189 10266 ft 303 kts 307°
2026-05-06 17:48 50.09052 8.05575 10438 ft 326 kts 308°
2026-05-06 17:49 50.10552 8.02781 10619 ft 348 kts 308°
2026-05-06 17:49 50.12136 7.99793 10969 ft 364 kts 307°
2026-05-06 17:49 50.13756 7.96702 11540 ft 373 kts 307°
2026-05-06 17:49 50.15399 7.93533 12249 ft 378 kts 307°
2026-05-06 17:50 50.17056 7.90314 13023 ft 382 kts 307°
2026-05-06 17:50 50.18722 7.87062 13757 ft 386 kts 307°
2026-05-06 17:50 50.20403 7.83774 14416 ft 390 kts 307°
2026-05-06 17:50 50.22102 7.80447 15100 ft 393 kts 307°
2026-05-06 17:51 50.23808 7.77103 15791 ft 396 kts 307°
2026-05-06 17:51 50.25656 7.73925 16300 ft 401 kts 319°
2026-05-06 17:51 50.28114 7.71788 16781 ft 406 kts 336°
2026-05-06 17:51 50.30767 7.70161 17301 ft 413 kts 335°
2026-05-06 17:52 50.33422 7.68398 17952 ft 416 kts 334°
2026-05-06 17:52 50.36071 7.66578 18572 ft 418 kts 334°
2026-05-06 17:52 50.38759 7.64719 19180 ft 421 kts 334°
2026-05-06 17:52 50.41455 7.62859 19751 ft 425 kts 334°
2026-05-06 17:53 50.44174 7.60987 20318 ft 428 kts 334°
2026-05-06 17:53 50.46915 7.59100 20872 ft 432 kts 334°
2026-05-06 17:53 50.49675 7.57198 21409 ft 436 kts 334°
2026-05-06 17:53 50.52465 7.55272 21983 ft 439 kts 334°
2026-05-06 17:54 50.55272 7.53330 22544 ft 442 kts 334°
2026-05-06 17:54 50.58005 7.51114 23023 ft 444 kts 327°
2026-05-06 17:54 50.60609 7.48450 23499 ft 448 kts 324°
2026-05-06 17:54 50.63178 7.45633 23956 ft 451 kts 323°
2026-05-06 17:55 50.65771 7.42815 24447 ft 454 kts 324°
2026-05-06 17:55 50.68412 7.40041 24927 ft 457 kts 325°
2026-05-06 17:55 50.71078 7.37301 25361 ft 461 kts 326°
2026-05-06 17:55 50.73712 7.34397 25730 ft 461 kts 317°
2026-05-06 17:56 50.75783 7.30539 26039 ft 463 kts 298°
2026-05-06 17:56 50.77188 7.25992 26432 ft 462 kts 294°
2026-05-06 17:56 50.78578 7.21398 26818 ft 467 kts 295°
2026-05-06 17:56 50.80027 7.16782 27298 ft 469 kts 295°
2026-05-06 17:57 50.81507 7.12171 27791 ft 471 kts 296°
2026-05-06 17:57 50.82985 7.07608 28244 ft 474 kts 296°
2026-05-06 17:57 50.84491 7.02960 28653 ft 477 kts 296°
2026-05-06 17:57 50.85998 6.98285 29077 ft 480 kts 296°
2026-05-06 17:58 50.87518 6.93555 29527 ft 481 kts 296°
2026-05-06 17:58 50.89034 6.88845 30099 ft 479 kts 296°
2026-05-06 17:58 50.90547 6.84149 30633 ft 477 kts 296°
2026-05-06 17:58 50.92051 6.79473 31142 ft 476 kts 295°
2026-05-06 17:59 50.93548 6.74805 31613 ft 475 kts 295°
2026-05-06 17:59 50.95043 6.70136 32032 ft 475 kts 295°
2026-05-06 17:59 50.96535 6.65464 32464 ft 474 kts 295°
2026-05-06 17:59 50.98022 6.60798 32928 ft 473 kts 295°
2026-05-06 18:00 50.99500 6.56153 33377 ft 472 kts 295°
2026-05-06 18:00 51.00977 6.51504 33785 ft 471 kts 295°
2026-05-06 18:00 51.03948 6.42114 33886 ft 477 kts 295°
2026-05-06 18:01 51.06900 6.32761 33888 ft 470 kts 295°
2026-05-06 18:01 51.09816 6.23482 33885 ft 469 kts 295°
2026-05-06 18:02 51.12719 6.14206 33903 ft 469 kts 294°
2026-05-06 18:02 51.14998 6.04522 33883 ft 466 kts 282°
2026-05-06 18:03 51.16519 5.94486 33884 ft 467 kts 282°
2026-05-06 18:03 51.18337 5.84552 33887 ft 469 kts 290°
2026-05-06 18:04 51.21242 5.75211 33896 ft 472 kts 299°
2026-05-06 18:04 51.24664 5.66269 33902 ft 473 kts 300°
2026-05-06 18:05 51.28091 5.57309 33901 ft 473 kts 299°
2026-05-06 18:05 51.31461 5.48364 33909 ft 473 kts 299°
2026-05-06 18:06 51.34835 5.39331 33913 ft 473 kts 299°
2026-05-06 18:06 51.38192 5.30304 33912 ft 472 kts 299°
2026-05-06 18:07 51.41542 5.21273 33914 ft 471 kts 299°
2026-05-06 18:07 51.44883 5.12234 33909 ft 471 kts 299°
2026-05-06 18:08 51.48209 5.03202 33912 ft 470 kts 299°
2026-05-06 18:08 51.51523 4.94174 33911 ft 469 kts 299°
2026-05-06 18:09 51.54810 4.85152 33916 ft 468 kts 297°
2026-05-06 18:09 51.57282 4.75527 33913 ft 465 kts 285°
2026-05-06 18:10 51.58454 4.67062 33916 ft 463 kts 278°
2026-05-06 18:10 51.59483 4.56923 33913 ft 463 kts 278°
2026-05-06 18:11 51.60513 4.46703 33909 ft 463 kts 278°
2026-05-06 18:11 51.61563 4.36487 33909 ft 463 kts 278°
2026-05-06 18:12 51.62618 4.26274 33910 ft 463 kts 278°
2026-05-06 18:12 51.63665 4.16064 33909 ft 463 kts 278°
2026-05-06 18:13 51.64702 4.05842 33912 ft 462 kts 278°
2026-05-06 18:13 51.65727 3.95640 33909 ft 462 kts 278°
2026-05-06 18:14 51.66744 3.85433 33910 ft 461 kts 278°
2026-05-06 18:14 51.67748 3.75255 33915 ft 460 kts 278°
2026-05-06 18:15 51.68741 3.65094 33918 ft 459 kts 278°
2026-05-06 18:15 51.69726 3.54933 33926 ft 458 kts 278°
2026-05-06 18:16 51.70700 3.44776 33927 ft 458 kts 278°
2026-05-06 18:16 51.71667 3.34610 33935 ft 459 kts 278°
2026-05-06 18:17 51.72625 3.24440 33937 ft 459 kts 278°
2026-05-06 18:17 51.72972 3.14175 33941 ft 459 kts 268°
2026-05-06 18:18 51.72227 3.03952 33953 ft 459 kts 262°
2026-05-06 18:18 51.71296 2.93815 33948 ft 460 kts 262°
2026-05-06 18:19 51.70389 2.83603 33950 ft 460 kts 262°
2026-05-06 18:19 51.69488 2.73328 33950 ft 460 kts 262°
2026-05-06 18:20 51.68588 2.63203 33954 ft 460 kts 262°
2026-05-06 18:20 51.67672 2.53003 33954 ft 460 kts 262°
2026-05-06 18:21 51.66738 2.42825 33959 ft 459 kts 262°
2026-05-06 18:21 51.65778 2.32645 33960 ft 459 kts 262°
2026-05-06 18:22 51.64815 2.22478 33963 ft 460 kts 262°
2026-05-06 18:22 51.63845 2.12308 33960 ft 460 kts 262°
2026-05-06 18:23 51.62910 2.02123 33963 ft 460 kts 262°
2026-05-06 18:23 51.61989 1.91928 33964 ft 460 kts 262°
2026-05-06 18:24 51.61037 1.81746 33972 ft 461 kts 262°
2026-05-06 18:24 51.60080 1.71554 33973 ft 461 kts 262°
2026-05-06 18:25 51.59267 1.61325 33974 ft 461 kts 267°
2026-05-06 18:25 51.59468 1.51048 33983 ft 460 kts 274°
2026-05-06 18:26 51.59966 1.40780 33974 ft 460 kts 274°
2026-05-06 18:26 51.60405 1.30507 33975 ft 460 kts 274°
2026-05-06 18:27 51.60813 1.20238 33985 ft 460 kts 273°
2026-05-06 18:27 51.61205 1.09980 33987 ft 459 kts 273°
2026-05-06 18:28 51.61593 0.99724 33990 ft 459 kts 273°
2026-05-06 18:28 51.61971 0.89564 33993 ft 458 kts 273°
2026-05-06 18:29 51.62407 0.79285 33997 ft 457 kts 274°
2026-05-06 18:29 51.62793 0.69080 33996 ft 456 kts 272°
2026-05-06 18:30 51.63093 0.58882 33992 ft 456 kts 273°
2026-05-06 18:30 51.63482 0.48708 33991 ft 455 kts 273°
2026-05-06 18:31 51.63834 0.38553 33991 ft 455 kts 272°
2026-05-06 18:31 51.64172 0.28387 33990 ft 455 kts 272°
2026-05-06 18:32 51.64472 0.18316 33997 ft 454 kts 270°
2026-05-06 18:32 51.63920 0.08146 33998 ft 454 kts 259°
2026-05-06 18:33 51.62780 -0.01801 33998 ft 454 kts 260°
2026-05-06 18:33 51.61979 -0.11858 34046 ft 454 kts 268°
2026-05-06 18:34 51.62247 -0.22004 34048 ft 454 kts 275°
2026-05-06 18:34 51.62902 -0.32117 34051 ft 455 kts 275°
2026-05-06 18:35 51.63540 -0.42237 33996 ft 455 kts 275°
2026-05-06 18:35 51.64149 -0.52375 33995 ft 455 kts 275°
2026-05-06 18:36 51.64741 -0.62507 33995 ft 455 kts 275°
2026-05-06 18:36 51.65322 -0.72640 33992 ft 454 kts 275°
2026-05-06 18:37 51.65799 -0.81064 33996 ft 454 kts 275°
2026-05-06 18:37 51.66460 -0.92904 33991 ft 454 kts 275°
2026-05-06 18:38 51.67015 -1.03034 33999 ft 454 kts 275°
2026-05-06 18:38 51.67563 -1.13170 33998 ft 454 kts 275°
2026-05-06 18:39 51.68101 -1.23310 33994 ft 454 kts 274°
2026-05-06 18:40 51.68893 -1.38521 34019 ft 454 kts 274°
2026-05-06 18:40 51.69409 -1.48655 34027 ft 454 kts 274°
2026-05-06 18:41 51.69918 -1.58808 34017 ft 454 kts 274°
2026-05-06 18:41 51.70419 -1.68953 33998 ft 454 kts 274°
2026-05-06 18:42 51.71129 -1.79053 34002 ft 454 kts 277°
2026-05-06 18:42 51.71890 -1.89151 34001 ft 454 kts 276°
2026-05-06 18:43 51.72610 -1.99275 34004 ft 454 kts 276°
2026-05-06 18:43 51.73315 -2.09390 34017 ft 454 kts 276°
2026-05-06 18:44 51.74016 -2.19507 34024 ft 454 kts 276°
2026-05-06 18:44 51.74708 -2.29626 34019 ft 454 kts 276°
2026-05-06 18:45 51.75389 -2.39686 34015 ft 454 kts 276°
2026-05-06 18:45 51.76065 -2.49807 34011 ft 454 kts 276°
2026-05-06 18:46 51.76732 -2.59938 34030 ft 454 kts 276°
2026-05-06 18:46 51.77391 -2.70079 34044 ft 454 kts 276°
2026-05-06 18:47 51.78043 -2.80233 34047 ft 455 kts 276°
2026-05-06 18:47 51.78686 -2.90410 34042 ft 455 kts 276°
2026-05-06 18:48 51.79320 -3.00578 34047 ft 456 kts 276°
2026-05-06 18:48 51.79947 -3.10769 34047 ft 456 kts 276°
2026-05-06 18:49 51.80566 -3.20981 34037 ft 457 kts 276°
2026-05-06 18:49 51.81176 -3.31202 34023 ft 457 kts 276°
2026-05-06 18:50 51.81779 -3.41438 34016 ft 458 kts 276°
2026-05-06 18:50 51.82376 -3.51692 33999 ft 459 kts 276°
2026-05-06 18:51 51.83468 -3.61836 34013 ft 459 kts 282°
2026-05-06 18:51 51.84825 -3.71940 34003 ft 460 kts 282°
2026-05-06 18:52 51.86147 -3.82071 34001 ft 461 kts 282°
2026-05-06 18:52 51.87445 -3.92234 33998 ft 462 kts 282°
2026-05-06 18:53 51.88736 -4.02431 34007 ft 463 kts 282°
2026-05-06 18:53 51.90011 -4.12565 34007 ft 464 kts 282°
2026-05-06 18:54 51.91291 -4.22817 34003 ft 464 kts 282°
2026-05-06 18:54 51.92565 -4.33085 34005 ft 465 kts 282°
2026-05-06 18:55 51.93831 -4.43373 34003 ft 466 kts 282°
2026-05-06 18:55 51.95090 -4.53683 34008 ft 467 kts 282°
2026-05-06 18:56 51.96342 -4.64018 34004 ft 467 kts 282°
2026-05-06 18:56 51.97589 -4.74382 34008 ft 468 kts 282°
2026-05-06 18:57 51.98618 -4.83005 34007 ft 469 kts 282°
2026-05-06 18:57 51.99851 -4.93407 34006 ft 470 kts 282°
2026-05-06 18:58 52.01076 -5.03831 34002 ft 470 kts 282°
2026-05-06 18:58 52.02295 -5.14268 34005 ft 471 kts 282°
2026-05-06 18:59 52.03842 -5.24564 34004 ft 469 kts 290°
2026-05-06 18:59 52.05923 -5.34586 34004 ft 469 kts 290°
2026-05-06 19:00 52.07997 -5.44636 34006 ft 469 kts 290°
2026-05-06 19:00 52.10033 -5.54718 34009 ft 469 kts 290°
2026-05-06 19:01 52.12053 -5.64825 34005 ft 470 kts 290°
2026-05-06 19:01 52.14067 -5.74938 34005 ft 470 kts 290°
2026-05-06 19:02 52.15940 -5.85151 33996 ft 472 kts 284°
2026-05-06 19:02 52.16874 -5.95777 34007 ft 475 kts 279°
2026-05-06 19:03 52.17619 -6.06473 34001 ft 476 kts 279°
2026-05-06 19:03 52.18377 -6.17191 34012 ft 477 kts 279°
2026-05-06 19:04 52.19152 -6.27928 33993 ft 478 kts 279°
2026-05-06 19:04 52.19926 -6.38629 34007 ft 478 kts 279°
2026-05-06 19:05 52.20697 -6.49407 34002 ft 479 kts 279°
2026-05-06 19:05 52.21457 -6.60206 33999 ft 480 kts 279°
2026-05-06 19:06 52.22209 -6.71029 33988 ft 480 kts 279°
2026-05-06 19:06 52.22950 -6.81862 33993 ft 481 kts 279°
2026-05-06 19:07 52.23682 -6.92704 33986 ft 481 kts 279°
2026-05-06 19:07 52.24405 -7.03553 33997 ft 481 kts 279°
2026-05-06 19:08 52.25117 -7.14408 33986 ft 482 kts 279°
2026-05-06 19:08 52.25821 -7.25283 33995 ft 482 kts 279°
2026-05-06 19:09 52.26515 -7.36166 33990 ft 482 kts 279°
2026-05-06 19:09 52.27200 -7.47054 33997 ft 482 kts 279°
2026-05-06 19:10 52.27875 -7.57954 33990 ft 483 kts 278°
2026-05-06 19:10 52.28539 -7.68861 33990 ft 482 kts 278°
2026-05-06 19:11 52.29189 -7.79690 33986 ft 482 kts 278°
2026-05-06 19:11 52.29834 -7.90601 33988 ft 483 kts 278°
2026-05-06 19:12 52.30468 -8.01509 33984 ft 483 kts 278°
2026-05-06 19:12 52.31095 -8.12465 33978 ft 484 kts 278°
2026-05-06 19:13 52.31712 -8.23426 33975 ft 484 kts 278°
2026-05-06 19:13 52.32319 -8.34397 33985 ft 485 kts 278°
2026-05-06 19:14 52.32915 -8.45364 33976 ft 485 kts 278°
2026-05-06 19:14 52.33501 -8.56333 33983 ft 485 kts 278°
2026-05-06 19:15 52.34078 -8.67313 33970 ft 485 kts 278°
2026-05-06 19:15 52.34645 -8.78301 33983 ft 484 kts 277°
2026-05-06 19:16 52.35199 -8.89261 33978 ft 484 kts 277°
2026-05-06 19:16 52.35744 -9.00220 33978 ft 483 kts 277°
2026-05-06 19:17 52.36278 -9.11176 33981 ft 483 kts 277°
2026-05-06 19:17 52.36802 -9.22124 33984 ft 482 kts 277°
2026-05-06 19:18 52.37314 -9.33065 33983 ft 482 kts 277°
2026-05-06 19:18 52.37813 -9.43928 33983 ft 482 kts 277°
2026-05-06 19:19 52.38309 -9.54947 33985 ft 482 kts 277°
2026-05-06 19:19 52.38789 -9.65813 33984 ft 482 kts 277°
2026-05-06 19:20 52.39261 -9.76747 33994 ft 482 kts 276°
2026-05-06 19:20 52.39726 -9.87757 33989 ft 481 kts 276°
2026-05-06 19:21 52.40177 -9.98697 33997 ft 481 kts 276°
2026-05-06 19:21 52.40616 -10.09562 33992 ft 482 kts 276°
2026-05-06 19:22 52.41047 -10.20505 33993 ft 482 kts 276°
2026-05-06 19:22 52.41469 -10.31464 33998 ft 482 kts 276°
2026-05-06 19:23 52.41880 -10.42412 33988 ft 482 kts 276°
2026-05-06 19:23 52.42282 -10.53371 33992 ft 482 kts 276°
2026-05-06 19:24 52.42673 -10.64323 33989 ft 482 kts 275°
2026-05-06 19:24 52.43054 -10.75283 33997 ft 482 kts 275°
2026-05-06 19:25 52.43425 -10.86245 34037 ft 484 kts 275°
2026-05-06 19:25 52.43608 -10.91759 34303 ft 485 kts 275°
2026-05-06 19:25 52.43788 -10.97255 34719 ft 482 kts 275°
2026-05-06 19:25 52.43963 -11.02727 35162 ft 479 kts 275°
2026-05-06 19:26 52.44135 -11.08147 35591 ft 476 kts 275°
2026-05-06 19:26 52.44304 -11.13556 35969 ft 474 kts 275°
2026-05-06 19:26 52.44472 -11.18982 35985 ft 480 kts 275°
2026-05-06 19:27 52.44801 -11.29896 35982 ft 477 kts 274°
2026-05-06 19:27 52.45115 -11.40667 35990 ft 471 kts 274°
2026-05-06 19:28 52.45419 -11.51401 35996 ft 471 kts 274°
2026-05-06 19:28 52.45713 -11.62123 35993 ft 471 kts 274°
2026-05-06 19:29 52.45998 -11.72863 35987 ft 471 kts 274°
2026-05-06 19:29 52.46273 -11.83603 35998 ft 472 kts 274°
2026-05-06 19:30 52.46538 -11.94358 35997 ft 472 kts 274°
2026-05-06 19:30 52.46794 -12.05127 35993 ft 473 kts 274°
2026-05-06 19:31 52.47041 -12.15899 35994 ft 473 kts 274°
2026-05-06 19:31 52.47392 -12.32072 35988 ft 473 kts 274°
2026-05-06 19:32 52.47612 -12.42777 35984 ft 473 kts 273°
2026-05-06 19:32 52.47824 -12.53553 35988 ft 472 kts 273°
2026-05-06 19:33 52.48026 -12.64320 35980 ft 472 kts 273°
2026-05-06 19:33 52.48218 -12.75079 35990 ft 471 kts 273°
2026-05-06 19:34 52.48400 -12.85824 35982 ft 471 kts 273°
2026-05-06 19:34 52.48572 -12.96560 35981 ft 471 kts 273°
2026-05-06 19:35 52.48735 -13.07285 35985 ft 470 kts 272°
2026-05-06 19:35 52.48887 -13.18003 35980 ft 470 kts 272°
2026-05-06 19:36 52.49030 -13.28724 35978 ft 470 kts 272°
2026-05-06 19:36 52.49163 -13.39437 35986 ft 470 kts 272°
2026-05-06 19:37 52.49287 -13.50154 35990 ft 470 kts 272°
2026-05-06 19:37 52.49382 -13.59057 35978 ft 470 kts 272°
2026-05-06 19:38 52.49504 -13.71579 35975 ft 470 kts 272°
2026-05-06 19:38 52.49599 -13.82295 35986 ft 470 kts 271°
2026-05-06 19:39 52.49683 -13.93011 35978 ft 470 kts 271°
2026-05-06 19:39 52.49758 -14.03722 35975 ft 469 kts 271°
2026-05-06 19:40 52.49823 -14.14359 35972 ft 469 kts 271°
2026-05-06 19:40 52.49879 -14.25069 35981 ft 469 kts 271°
2026-05-06 19:41 52.49925 -14.35761 35972 ft 469 kts 271°
2026-05-06 19:41 52.49961 -14.46474 35980 ft 469 kts 271°
2026-05-06 19:42 52.49988 -14.57163 35981 ft 468 kts 271°
2026-05-06 19:42 52.50005 -14.67848 35976 ft 468 kts 270°
2026-05-06 19:43 52.50013 -14.78521 35976 ft 467 kts 270°
2026-05-06 19:43 52.50013 -14.89184 35978 ft 467 kts 270°
2026-05-06 19:44 52.50113 -14.99832 35980 ft 466 kts 275°
2026-05-06 19:44 52.51163 -15.10322 35981 ft 466 kts 281°
2026-05-06 19:45 52.52252 -15.18982 35983 ft 466 kts 281°
2026-05-06 19:45 52.53758 -15.31162 35974 ft 466 kts 281°
2026-05-06 19:46 52.54802 -15.39848 35977 ft 466 kts 281°
2026-05-06 19:46 52.56040 -15.50311 35978 ft 466 kts 280°
2026-05-06 19:47 52.57266 -15.60769 35981 ft 466 kts 280°
2026-05-06 19:47 52.58482 -15.71230 35970 ft 466 kts 280°
2026-05-06 19:48 52.59691 -15.81705 35966 ft 466 kts 280°
2026-05-06 19:48 52.60890 -15.92177 35978 ft 466 kts 279°
2026-05-06 19:49 52.62081 -16.02662 35967 ft 466 kts 279°
2026-05-06 19:49 52.63263 -16.13154 35975 ft 466 kts 279°
2026-05-06 19:50 52.64426 -16.23578 35974 ft 466 kts 279°
2026-05-06 19:50 52.65588 -16.34072 35968 ft 466 kts 279°
2026-05-06 19:51 52.66742 -16.44583 35964 ft 466 kts 279°
2026-05-06 19:51 52.67886 -16.55095 35966 ft 466 kts 279°
2026-05-06 19:52 52.69021 -16.65609 35968 ft 466 kts 278°
2026-05-06 19:52 52.70147 -16.76140 35970 ft 466 kts 278°
2026-05-06 19:53 52.71263 -16.86665 35970 ft 466 kts 278°
2026-05-06 19:53 52.72369 -16.97186 35970 ft 465 kts 278°
2026-05-06 19:54 52.73463 -17.07699 35966 ft 465 kts 278°
2026-05-06 19:54 52.74549 -17.18214 35969 ft 465 kts 278°
2026-05-06 19:55 52.75624 -17.28727 35967 ft 464 kts 277°
2026-05-06 19:55 52.76688 -17.39229 35967 ft 464 kts 277°
2026-05-06 19:56 52.77742 -17.49729 35967 ft 463 kts 277°
2026-05-06 19:56 52.78787 -17.60231 35968 ft 463 kts 277°
2026-05-06 19:57 52.79822 -17.70733 35968 ft 463 kts 277°
2026-05-06 19:57 52.80848 -17.81240 35969 ft 463 kts 277°
2026-05-06 19:58 52.81863 -17.91744 35967 ft 463 kts 277°
2026-05-06 19:58 52.82864 -18.02192 35970 ft 463 kts 277°
2026-05-06 19:59 52.83862 -18.12718 35966 ft 463 kts 276°
2026-05-06 19:59 52.84851 -18.23255 35971 ft 464 kts 276°
2026-05-06 20:00 52.85833 -18.33808 35966 ft 464 kts 276°
2026-05-06 20:00 52.86804 -18.44363 35970 ft 464 kts 276°
2026-05-06 20:01 52.87767 -18.54924 35965 ft 464 kts 276°
2026-05-06 20:01 52.88720 -18.65495 35971 ft 464 kts 276°
2026-05-06 20:02 52.89664 -18.76070 35968 ft 464 kts 276°
2026-05-06 20:02 52.90598 -18.86638 35968 ft 464 kts 275°
2026-05-06 20:03 52.91522 -18.97211 35971 ft 464 kts 275°
2026-05-06 20:03 52.92436 -19.07780 35972 ft 463 kts 275°
2026-05-06 20:04 52.93341 -19.18358 35970 ft 463 kts 275°
2026-05-06 20:04 52.94236 -19.28927 35972 ft 463 kts 275°
2026-05-06 20:05 52.95122 -19.39506 35970 ft 463 kts 275°
2026-05-06 20:05 52.95997 -19.50073 35973 ft 463 kts 275°
2026-05-06 20:06 52.96863 -19.60644 35972 ft 462 kts 275°
2026-05-06 20:06 52.97719 -19.71223 35974 ft 463 kts 275°
2026-05-06 20:07 52.98566 -19.81799 35974 ft 463 kts 275°
2026-05-06 20:07 52.99405 -19.92388 35977 ft 463 kts 274°
2026-05-06 20:08 53.00162 -20.02920 35975 ft 462 kts 272°
2026-05-06 20:08 53.00617 -20.13561 35982 ft 462 kts 271°
2026-05-06 20:09 53.01014 -20.24215 35980 ft 462 kts 270°
2026-05-06 20:09 53.01416 -20.34879 35982 ft 463 kts 271°
2026-05-06 20:10 53.01824 -20.45547 35982 ft 463 kts 271°
2026-05-06 20:10 53.02228 -20.56233 35986 ft 464 kts 270°
2026-05-06 20:11 53.02623 -20.66919 35987 ft 464 kts 270°
2026-05-06 20:11 53.03007 -20.77608 35986 ft 464 kts 270°
2026-05-06 20:12 53.03383 -20.88312 35984 ft 464 kts 270°
2026-05-06 20:12 53.03747 -20.99002 35983 ft 464 kts 270°
2026-05-06 20:13 53.04102 -21.09693 35987 ft 463 kts 270°
2026-05-06 20:13 53.04448 -21.20388 35987 ft 463 kts 270°
2026-05-06 20:14 53.04784 -21.31078 35990 ft 463 kts 270°
2026-05-06 20:14 53.05109 -21.41760 35991 ft 463 kts 270°
2026-05-06 20:15 53.05426 -21.52456 35991 ft 463 kts 270°
2026-05-06 20:15 53.05733 -21.63141 35991 ft 463 kts 270°
2026-05-06 20:16 53.06030 -21.73831 35990 ft 463 kts 270°
2026-05-06 20:16 53.06318 -21.84519 35992 ft 463 kts 270°